Theta_e
341 341 342 343 344 344 344 343 343 345 344 344 343 343 342 341 342 340 340 339 339 340 339 339 340 340 338 336 337 338 340 340 341 339 340 340 340 339 338 339 339 339 338 338 338 336 335 335 333 333 332 331 332 332 333 332 330 331 331 331 331 330 330 330 329 330 330 331 332 332 331 332 332 332 332 332 332 331 331 331 331 331 331 331 331
340 340 341 341 341 343 344 343 344 345 345 343 343 343 342 342 343 341 338 338 338 341 340 339 338 339 338 338 338 339 339 339 339 339 339 340 340 340 338 339 340 339 338 339 338 337 336 335 334 334 333 332 333 332 333 332 331 332 332 331 331 330 330 330 330 329 329 331 331 331 331 332 332 332 332 332 332 331 331 331 331 331 330 330 329
340 340 340 340 341 342 342 343 344 344 344 343 344 343 343 343 343 342 342 341 342 343 340 340 339 337 339 337 338 341 340 340 339 339 338 339 340 340 338 337 339 340 339 339 339 338 337 335 335 334 334 332 333 332 332 333 332 331 331 331 331 331 331 330 330 330 329 330 330 331 331 331 332 332 332 332 332 332 332 332 332 332 331 330 330
339 339 340 340 341 341 342 341 342 343 342 342 343 342 342 342 342 343 343 343 343 343 344 342 340 338 339 338 341 341 340 340 339 339 338 339 339 340 339 338 339 340 339 340 339 339 338 336 335 335 334 333 333 332 333 334 333 333 332 332 331 331 331 331 330 330 331 331 331 331 331 332 332 332 332 332 332 332 332 332 332 332 331 330 329
341 340 341 341 341 341 340 340 341 342 342 342 342 341 341 342 342 342 341 342 341 342 343 343 341 341 341 339 340 340 340 340 340 340 338 338 338 338 339 339 339 340 339 340 339 339 340 338 336 336 335 334 335 334 334 334 333 333 333 332 332 332 331 331 331 331 332 331 331 331 331 331 332 332 332 332 332 332 332 331 331 331 331 331 330
340 340 340 340 340 339 339 341 341 341 342 342 342 342 340 340 339 339 339 339 339 341 340 339 339 340 341 341 341 341 341 340 339 340 339 339 339 340 339 338 338 340 339 340 339 339 339 339 337 336 336 335 335 335 334 335 334 333 333 333 332 332 332 331 331 332 332 332 331 331 331 331 331 331 331 331 331 331 331 331 331 331 331 331 331
341 341 341 341 340 340 340 340 341 342 342 342 341 340 339 338 338 336 337 338 338 339 340 339 339 339 340 341 341 341 340 340 341 339 338 340 341 340 340 339 339 339 339 340 340 339 339 339 338 336 336 336 336 336 335 335 335 335 334 333 332 332 331 331 331 332 332 332 331 331 332 331 331 331 331 331 331 331 331 331 331 331 331 331 331
340 341 341 342 341 341 341 341 341 341 340 340 341 339 340 339 340 336 334 335 336 336 338 337 338 337 338 339 339 340 338 339 339 339 340 340 339 340 340 339 340 339 340 339 339 339 338 339 338 337 337 337 336 337 336 336 335 336 335 333 333 333 331 331 331 332 332 332 331 330 331 331 331 331 331 331 331 331 331 331 331 331 330 330 330
341 341 341 342 342 341 341 341 341 340 339 338 339 339 337 336 337 338 336 334 334 334 335 336 336 337 338 338 337 338 338 339 339 339 340 339 339 339 340 339 339 339 340 340 340 342 338 339 338 337 336 336 337 337 337 336 335 336 336 334 334 333 331 332 332 331 331 331 331 330 331 331 331 331 331 331 331 331 331 330 331 330 330 330 330
341 341 342 342 342 341 340 340 341 340 339 339 338 338 336 336 335 338 338 336 335 335 334 334 334 334 335 336 337 338 338 339 340 339 339 338 338 338 339 340 340 339 338 340 340 340 337 337 338 337 336 335 337 337 337 336 336 337 336 334 333 333 332 333 333 332 331 331 331 330 329 331 331 331 331 331 331 331 331 330 331 330 329 329 329
339 340 341 340 340 340 339 340 340 340 339 338 338 338 337 338 336 336 338 337 336 336 336 335 334 334 333 335 336 337 338 339 338 338 338 338 338 338 339 339 340 339 339 339 339 339 338 337 337 338 337 336 336 337 337 336 336 337 336 335 334 333 333 334 334 333 331 332 331 330 330 330 331 331 331 331 330 331 331 330 330 329 329 328 328
338 339 338 338 338 338 338 339 339 338 337 336 336 336 336 336 336 336 336 337 337 335 336 335 334 334 334 334 336 337 337 338 339 337 338 338 338 338 337 338 337 337 337 338 340 338 336 337 337 335 337 336 335 336 337 336 335 336 336 336 334 333 333 334 335 335 332 332 331 330 330 330 331 331 331 331 331 331 331 330 330 329 328 328 328
338 337 337 336 336 337 336 337 338 337 335 335 335 335 335 334 333 334 333 333 334 337 336 335 330 330 333 334 334 336 338 339 339 338 337 337 338 337 337 336 336 336 337 337 337 336 336 336 336 336 336 335 336 334 336 335 335 336 336 336 335 334 334 334 334 336 333 332 331 330 330 330 331 331 331 330 331 331 331 330 329 328 328 327 328
337 337 337 336 335 335 336 335 336 336 336 336 334 334 333 333 332 331 333 331 331 335 335 334 330 328 326 327 331 335 339 340 337 336 336 336 336 336 336 336 335 336 336 335 335 335 335 335 336 335 335 336 335 335 336 336 335 335 336 335 335 335 335 335 335 336 335 333 332 330 330 330 331 331 331 331 331 330 330 330 329 328 327 327 326
336 336 336 336 336 336 335 336 336 335 335 335 335 334 334 332 333 330 329 332 332 335 335 334 330 332 331 327 325 324 330 333 334 334 336 337 337 335 335 335 334 336 336 335 334 334 334 334 334 334 335 335 334 335 335 335 335 335 336 336 335 335 336 335 336 336 336 334 333 332 330 330 331 331 331 331 330 330 330 329 329 328 327 326 325
333 334 334 334 334 334 336 336 335 335 335 333 333 332 333 333 332 332 331 328 331 331 336 336 336 330 322 323 323 324 319 325 328 331 335 336 336 334 335 334 335 335 336 334 333 334 334 334 334 334 334 334 334 335 335 336 335 336 336 335 335 335 336 335 336 336 336 334 334 332 331 331 331 331 331 330 330 329 329 329 328 327 326 326 325
330 330 331 331 332 332 333 333 333 333 333 332 332 332 333 333 332 331 331 328 327 330 334 335 334 336 329 322 322 320 321 323 325 326 334 332 333 335 334 334 334 334 335 334 334 334 333 333 334 335 335 334 335 334 334 335 337 336 336 336 335 335 335 335 335 336 338 335 334 333 331 331 331 331 330 330 330 329 329 328 328 327 326 325 324
327 327 328 329 327 328 329 329 330 331 331 331 330 330 330 331 331 330 330 331 327 328 328 334 336 334 333 332 328 320 320 324 323 318 331 333 333 334 335 335 335 334 334 333 333 334 333 332 334 335 334 334 334 336 337 337 337 337 337 335 334 336 332 334 334 335 338 337 334 334 332 331 331 331 331 330 330 329 329 328 327 325 324 324 323
324 324 324 324 324 324 324 325 326 326 326 326 325 325 326 327 330 330 330 330 330 326 326 328 332 333 333 333 333 333 331 325 319 321 317 326 331 331 332 333 334 333 332 332 334 334 334 334 333 333 334 334 333 333 333 334 334 334 334 332 332 332 330 329 335 337 337 338 334 335 334 332 332 331 331 330 330 329 329 328 326 324 323 323 322
320 319 319 319 320 319 320 320 321 323 324 323 324 325 325 326 327 327 329 329 329 327 327 328 326 327 332 330 330 332 332 332 328 321 318 316 319 328 332 332 333 333 332 332 333 333 334 336 333 333 334 334 333 332 332 333 333 334 334 329 330 330 331 329 328 332 337 339 338 335 336 333 334 332 332 331 329 329 329 327 326 324 323 323 323
317 315 315 316 316 315 316 315 316 318 319 319 320 321 322 323 323 324 326 327 328 329 327 327 327 325 326 327 328 328 329 329 327 326 321 318 318 321 323 329 333 332 333 334 333 334 334 334 336 335 334 335 333 332 333 332 333 334 333 329 329 329 329 329 325 321 324 335 335 337 337 334 333 333 332 331 330 329 328 327 326 324 323 323 323
318 315 314 314 315 314 313 314 314 315 315 315 315 317 318 321 323 324 324 324 327 327 326 327 327 327 327 326 325 326 326 326 326 325 323 324 317 318 322 322 321 326 333 333 334 334 335 335 338 336 335 334 334 333 333 333 334 334 332 328 327 327 327 328 324 320 320 324 333 336 334 333 334 334 332 331 331 329 328 327 326 325 324 324 323
315 314 313 313 313 313 312 312 313 314 312 312 313 314 315 317 320 322 323 322 323 325 325 326 327 326 326 326 325 324 322 321 321 322 322 320 320 320 322 322 321 321 327 331 333 334 334 336 337 335 334 334 335 334 333 334 333 331 329 328 326 327 327 324 322 318 321 324 329 328 331 333 333 333 332 331 331 330 328 328 328 325 324 324 324
312 310 310 311 311 310 310 309 309 310 309 309 311 310 311 313 316 317 318 319 321 321 321 322 322 324 326 327 326 326 325 324 324 324 322 321 321 320 320 322 323 324 326 330 334 335 335 336 335 335 335 335 336 335 335 334 333 330 330 327 326 327 327 324 319 319 316 318 323 324 332 335 334 334 332 333 332 330 329 329 327 325 325 325 325
311 309 309 309 309 309 308 307 306 307 308 308 308 309 309 310 312 313 313 314 315 315 315 317 319 320 322 325 326 326 326 328 328 326 325 325 323 319 322 325 321 322 325 328 328 332 333 333 334 334 334 334 335 336 337 334 335 330 327 328 324 325 324 326 325 319 314 314 318 322 330 333 335 333 331 331 332 331 329 328 326 321 322 322 323
311 309 309 308 308 308 308 307 307 307 307 307 308 308 307 308 309 308 308 310 310 309 311 313 314 317 318 319 322 323 325 327 327 326 325 323 321 321 321 321 324 321 325 325 326 325 329 333 334 333 334 335 337 337 337 335 334 328 326 329 327 322 321 322 325 323 319 316 318 321 325 329 329 331 331 331 331 328 327 324 320 318 316 314 316
309 310 308 307 307 307 307 306 306 306 306 306 306 306 307 307 307 306 307 307 306 307 308 309 309 311 313 315 317 320 322 324 325 325 326 325 323 323 322 317 319 323 321 323 324 325 325 330 333 333 333 334 335 338 338 336 332 329 325 329 331 322 320 319 322 323 321 319 318 318 319 323 325 326 327 327 326 323 322 322 319 317 316 314 316
310 308 307 306 306 305 305 305 305 305 305 305 305 305 306 305 304 305 304 306 305 306 307 308 308 310 311 314 314 316 318 320 321 322 323 325 325 325 324 322 317 315 319 320 322 324 328 327 331 334 333 334 334 335 334 333 335 327 325 331 330 328 319 318 320 324 322 319 317 316 315 316 318 320 319 321 323 322 322 322 319 318 316 315 318
308 307 306 305 305 305 305 304 304 305 305 304 304 305 305 305 304 304 304 304 305 305 306 306 308 309 310 312 312 313 315 317 318 318 319 321 324 325 325 323 322 318 316 316 319 320 325 328 327 331 334 334 334 336 335 334 331 329 331 331 331 332 323 317 316 319 319 317 317 317 317 317 317 317 319 322 323 323 323 319 317 316 315 316 320
306 306 305 305 304 305 304 304 304 304 304 304 304 304 304 304 305 305 305 305 305 305 306 307 307 308 309 310 311 312 314 315 315 317 319 320 323 325 325 325 327 320 320 317 317 323 323 327 329 328 333 333 333 335 336 335 328 329 330 332 332 331 323 316 315 314 315 315 315 313 313 315 317 319 323 322 321 319 318 316 315 315 315 317 321
305 304 304 303 303 303 303 303 303 303 303 303 303 303 304 303 304 304 305 305 305 305 306 307 307 308 308 308 310 311 312 311 312 314 315 316 317 318 319 323 326 326 321 320 314 323 327 324 327 331 332 337 335 335 332 333 330 329 332 332 332 326 323 320 315 314 315 314 313 314 315 314 314 316 319 320 321 319 318 316 315 315 317 319 318
304 304 303 302 302 302 302 302 302 302 302 302 302 302 303 302 303 303 304 305 304 305 305 306 307 307 307 307 308 308 308 308 309 311 311 312 312 312 313 315 318 321 322 320 316 317 327 327 328 331 333 337 337 332 332 331 331 324 331 333 332 324 327 329 315 314 314 313 313 313 316 314 312 314 317 319 320 320 318 318 316 317 317 315 314
303 303 302 302 302 302 302 301 301 301 301 301 301 302 301 301 302 302 303 303 303 304 305 305 307 306 306 305 306 306 306 306 307 308 308 309 309 309 309 310 311 315 317 317 317 318 325 331 331 330 329 337 332 333 331 330 330 331 327 331 332 330 331 331 325 314 313 312 312 311 312 312 311 316 318 319 320 319 317 315 314 313 312 312 312
303 302 302 302 302 302 301 301 301 301 301 301 301 301 300 300 301 302 302 302 302 302 303 303 304 305 305 304 304 304 305 305 306 305 306 306 306 306 305 305 307 309 312 311 313 316 318 326 328 330 331 334 329 333 330 329 329 329 329 330 332 331 330 330 327 322 312 313 312 311 312 311 310 313 314 313 314 314 313 311 310 310 311 311 307
303 302 302 302 301 301 301 301 300 300 300 300 301 300 300 300 300 300 301 301 301 301 301 302 302 303 303 303 303 303 304 304 304 304 304 304 304 303 303 304 304 305 307 309 309 310 314 319 326 327 328 329 329 329 332 331 329 329 328 328 329 330 330 330 328 326 312 311 310 310 311 311 310 311 311 311 312 311 311 309 309 309 309 309 306
301 302 302 301 301 301 300 300 299 299 300 300 300 300 300 300 300 299 300 300 301 301 301 301 301 302 302 301 302 302 302 302 302 302 302 302 301 301 301 302 302 302 304 306 308 308 312 315 322 324 324 325 326 329 331 331 328 328 328 330 330 329 330 330 330 327 318 310 310 310 310 311 310 310 310 310 311 310 309 308 308 308 308 307 307
301 301 302 302 301 300 300 299 299 299 299 299 299 299 299 300 300 300 300 300 300 300 300 300 301 301 301 301 301 301 301 301 301 300 300 300 299 299 299 300 300 300 301 302 304 308 309 312 317 323 325 324 326 327 328 328 328 328 330 328 328 328 329 329 330 328 317 310 310 310 309 310 310 310 310 310 310 310 308 308 308 307 307 307 307
300 300 301 301 301 300 299 299 299 299 299 299 299 299 299 299 300 300 300 300 300 300 300 300 300 300 300 300 300 300 300 299 299 299 300 299 298 297 297 298 298 299 299 300 303 305 307 311 315 317 322 321 322 325 328 327 326 325 325 326 327 327 326 326 328 328 325 316 316 315 311 310 310 310 310 310 309 308 308 307 307 307 306 307 307
299 299 300 300 300 300 300 300 299 299 299 299 298 298 298 299 299 299 299 299 299 300 300 300 300 300 300 299 299 299 299 299 299 298 298 297 297 297 297 297 297 297 297 297 299 301 304 308 313 318 320 321 321 320 324 326 326 325 323 322 322 326 326 325 324 326 324 319 315 311 312 313 313 313 309 308 308 308 308 307 307 306 306 306 305
298 298 298 299 300 300 300 299 299 300 299 298 297 297 298 298 299 299 299 299 299 299 299 299 300 299 299 299 299 299 299 299 299 298 297 295 295 295 296 296 296 295 295 296 297 299 302 305 310 313 318 319 320 322 323 324 322 323 324 323 320 321 322 324 324 323 322 319 318 316 312 312 313 312 309 308 309 308 307 307 308 307 306 305 304
298 298 299 299 298 299 299 299 299 299 299 298 297 296 296 297 299 299 299 298 298 298 298 298 298 298 299 299 299 299 300 300 298 298 297 296 295 293 294 295 295 295 295 296 297 298 301 303 306 311 314 316 318 319 319 319 319 319 323 323 321 322 323 322 324 325 322 319 318 318 316 316 318 317 316 314 314 311 310 309 310 308 307 305 304
298 298 298 298 298 298 298 298 299 299 298 298 296 294 294 296 298 299 299 298 298 298 298 297 297 298 298 298 298 300 299 298 297 296 295 294 295 295 294 294 294 294 294 295 297 298 299 300 302 306 308 312 316 319 318 320 322 323 322 321 319 321 322 321 322 324 324 320 318 317 317 319 319 318 317 315 317 315 315 313 314 312 307 304 304
297 298 298 297 298 298 298 298 298 299 298 297 293 292 292 292 296 299 298 297 298 298 298 297 296 297 297 297 297 298 298 297 297 295 294 294 293 293 293 294 295 295 295 295 296 298 297 297 300 303 305 308 313 318 319 320 321 322 322 321 320 319 318 316 315 319 324 321 318 317 317 320 320 317 317 317 317 316 316 315 310 307 305 304 304
297 297 297 297 297 298 298 298 298 298 298 294 291 292 292 292 293 297 298 297 297 298 297 296 296 296 295 295 296 296 296 296 296 295 295 294 293 293 293 293 293 293 294 296 296 296 297 296 297 300 302 305 309 313 317 319 319 320 322 321 319 318 318 317 317 316 321 323 319 317 316 319 321 319 317 317 318 316 316 312 307 306 304 304 304
297 296 296 297 297 297 298 297 298 298 299 293 291 292 292 291 291 295 298 298 297 297 297 296 296 295 295 294 294 295 295 297 297 295 294 294 294 293 294 295 295 295 293 292 293 297 298 297 298 299 301 305 307 310 316 319 320 319 320 319 319 319 320 318 318 320 320 322 320 317 316 318 319 316 316 318 319 318 316 309 306 305 304 303 303
296 296 296 296 297 297 297 298 298 298 298 294 291 291 292 291 291 293 298 298 298 297 296 296 296 295 295 294 293 294 294 295 295 294 293 293 293 294 296 297 298 298 296 295 294 294 296 298 298 298 301 304 304 307 311 313 316 318 319 318 320 320 320 320 323 323 323 322 319 317 316 317 319 318 316 317 319 318 318 311 305 304 304 303 303
295 295 295 296 296 297 297 298 298 298 297 292 291 291 291 291 291 294 298 297 297 296 297 296 296 295 295 294 294 294 294 294 294 293 292 292 292 293 294 295 296 298 298 299 300 300 299 298 297 298 299 301 303 305 308 314 318 320 321 321 320 320 321 322 322 322 321 322 322 319 314 316 319 317 316 316 318 318 319 309 304 304 303 302 302
296 296 296 296 296 296 297 297 297 297 298 292 291 291 291 291 292 297 297 296 296 296 296 296 296 296 295 295 294 293 293 294 294 291 291 292 292 292 292 294 295 296 297 298 295 295 297 297 298 298 299 301 299 302 302 303 304 310 318 320 321 320 318 315 314 313 315 319 323 321 318 314 316 316 315 317 317 316 317 314 304 304 303 302 301
295 295 295 295 296 296 296 296 296 297 298 294 290 290 291 290 294 297 297 296 296 295 295 296 296 296 296 295 295 294 293 294 292 289 290 291 292 292 292 292 293 294 295 298 295 294 293 293 293 294 294 293 293 293 293 293 296 302 311 316 314 317 315 312 313 312 314 316 320 322 320 313 313 314 314 315 315 313 313 312 309 303 302 302 301
294 295 295 295 295 295 295 295 295 296 297 295 291 290 290 290 293 297 296 295 295 295 295 296 296 296 296 296 296 295 293 294 290 289 290 291 291 291 291 290 291 292 293 295 295 296 296 296 296 296 296 295 293 293 294 294 295 298 307 310 315 315 313 313 312 312 315 314 316 322 318 313 313 315 310 308 309 311 312 311 309 306 302 301 301
295 296 295 295 295 295 296 296 294 296 297 296 292 290 290 290 293 297 296 295 294 294 294 294 295 295 295 296 295 294 293 292 289 290 289 291 291 291 290 290 289 289 291 292 293 294 296 299 301 302 303 303 306 306 306 300 298 300 306 311 316 314 312 313 313 312 310 311 316 321 315 311 312 312 308 306 305 303 309 309 309 309 309 308 306
Wind_Speed
2 2 2 2 2 1 1 2 2 2 3 4 4 4 3 3 3 3 2 2 2 1 1 2 2 2 1 2 2 2 2 3 4 4 5 5 5 6 11 11 11 10 11 12 10 10 8 9 9 9 8 10 10 9 9 7 8 7 8 7 6 6 5 5 5 5 5 4 4 5 6 6 6 6 6 7 7 6 8 9 9 9 9 10 9
1 1 1 1 1 2 2 2 2 2 3 4 4 4 4 3 2 2 3 3 2 2 2 2 2 2 3 2 3 3 3 4 4 4 4 5 5 6 11 12 12 10 11 12 11 11 9 9 10 10 10 10 11 10 9 9 8 9 9 8 8 7 6 6 6 5 6 6 5 5 6 7 7 7 8 7 7 8 9 9 9 9 9 9 8
2 2 2 2 1 2 2 2 3 4 4 4 4 4 4 4 3 4 3 3 3 3 3 3 4 4 2 3 2 3 3 4 4 4 5 5 5 6 8 13 12 12 11 11 13 12 12 9 11 11 11 11 12 11 10 10 9 9 10 9 9 8 8 7 7 6 5 5 4 4 5 6 7 7 8 8 9 9 9 10 10 10 10 10 10
1 1 1 1 2 2 3 3 4 3 4 4 4 5 5 5 5 4 4 4 4 4 3 4 5 5 4 5 3 4 3 3 4 4 5 5 5 5 6 8 13 12 13 11 12 14 13 11 12 12 12 11 12 12 11 11 11 11 10 10 10 9 9 8 8 7 7 6 5 5 5 6 7 8 8 8 9 9 9 10 10 9 10 11 11
1 1 1 2 2 3 3 4 4 3 4 4 4 4 5 4 5 4 5 4 5 4 3 3 4 5 5 5 4 4 4 4 4 4 5 5 5 5 6 7 8 13 14 13 14 13 13 12 13 13 13 13 13 13 12 13 12 12 12 11 11 10 10 9 9 8 8 8 7 7 6 7 8 8 8 7 8 8 9 10 10 9 10 11 11
2 2 1 2 2 3 3 4 4 4 4 4 4 4 4 5 6 6 5 5 5 5 5 5 5 4 4 4 4 4 4 4 4 4 5 5 5 6 6 6 7 7 9 14 14 14 14 11 12 13 14 14 15 14 13 13 12 12 13 12 12 11 11 11 10 9 9 8 8 8 7 7 7 8 8 7 8 8 9 10 10 10 10 11 11
2 2 2 2 2 3 4 4 4 4 5 4 5 5 4 5 5 6 6 5 5 5 5 5 5 5 5 4 4 5 6 5 5 5 5 5 5 6 6 6 7 8 8 7 12 14 13 11 12 13 15 15 15 15 14 14 14 14 14 14 13 13 12 11 11 10 10 9 9 9 8 8 7 8 9 8 8 9 10 10 10 11 11 11 11
2 2 2 2 2 3 3 4 4 3 4 4 4 5 5 4 4 4 6 6 6 6 5 6 6 7 6 6 7 6 6 7 7 7 6 5 5 6 6 6 7 8 7 7 6 8 10 13 12 12 13 13 16 17 16 15 15 15 15 14 14 14 13 12 11 11 11 10 10 10 9 8 9 9 9 8 9 10 10 11 12 12 11 11 11
2 2 3 3 3 3 4 4 4 3 3 3 3 3 4 4 4 3 4 5 6 6 6 6 7 7 7 7 7 6 7 7 7 7 7 7 7 6 6 7 8 8 8 7 6 5 12 14 14 13 13 13 13 16 17 16 16 16 16 15 15 16 14 14 13 12 12 11 11 10 10 9 9 9 9 10 10 11 12 12 12 12 12 11 11
2 2 2 3 4 4 4 4 4 3 3 3 4 3 3 3 5 4 4 5 6 7 7 7 7 7 7 7 7 7 7 7 7 7 7 8 8 8 7 6 7 8 9 8 8 7 7 10 13 12 14 14 14 16 18 17 17 18 18 16 17 15 14 15 14 14 12 12 12 11 11 11 10 9 10 10 11 12 12 12 13 13 12 11 11
3 3 4 4 4 4 4 5 4 4 4 4 4 3 4 4 5 6 5 5 6 7 7 8 8 8 9 9 8 8 8 7 7 7 8 9 9 9 7 8 7 7 9 9 8 9 10 8 9 9 12 17 16 16 18 18 18 19 18 17 18 16 17 16 16 15 14 13 13 12 11 12 11 11 11 11 12 13 13 13 13 13 12 12 11
4 4 3 3 4 5 5 5 5 4 5 5 5 5 6 6 6 7 7 6 5 5 5 6 8 9 9 8 8 8 9 9 8 8 7 8 8 8 8 8 9 10 11 10 8 10 11 11 11 9 8 11 18 16 16 16 15 18 19 19 19 17 18 18 18 16 15 15 14 13 11 13 12 11 12 12 13 14 14 14 13 13 13 12 11
5 5 5 4 4 4 4 4 4 4 4 4 5 5 5 5 5 5 6 7 6 4 5 4 7 7 6 8 8 8 9 8 8 7 7 7 7 7 8 8 9 10 10 10 11 11 11 12 12 9 9 11 12 16 16 16 16 17 20 20 20 19 19 19 18 17 17 16 15 13 13 13 13 12 13 13 14 14 14 14 13 12 12 11 9
6 6 5 5 5 4 5 5 4 4 3 4 4 4 5 5 5 5 4 6 5 5 5 4 4 6 10 10 9 6 5 5 6 7 7 7 7 8 8 9 10 10 9 9 11 12 12 11 11 13 12 12 11 10 11 14 16 17 19 20 20 20 20 20 19 19 18 17 17 14 14 15 14 13 14 14 14 15 15 14 13 12 12 11 11
7 7 6 7 7 6 6 5 5 4 4 3 4 5 4 5 5 4 5 4 4 4 5 4 5 8 8 8 8 10 2 4 3 6 6 6 6 8 9 9 11 10 9 9 10 11 12 12 12 13 12 13 13 9 10 11 15 18 18 19 20 21 21 21 21 21 19 19 18 16 16 15 16 14 15 14 14 14 14 14 13 12 11 11 10
9 8 8 8 8 8 7 7 7 7 6 5 5 5 5 5 5 5 6 7 5 3 4 5 4 6 7 5 8 7 10 3 6 8 7 7 7 9 8 9 10 10 9 10 11 11 11 12 13 14 14 14 13 10 9 10 16 17 18 19 18 21 22 22 22 22 19 20 19 19 17 17 16 16 15 14 13 12 13 13 13 12 11 11 11
9 9 8 8 8 7 8 7 7 7 6 6 5 5 5 5 6 6 6 6 8 5 5 6 6 3 5 7 5 5 6 9 11 10 4 4 7 8 9 10 10 10 9 10 11 11 11 13 13 14 15 15 12 12 11 10 12 13 16 18 20 19 20 22 22 22 22 20 20 20 19 17 16 14 15 14 14 14 14 14 13 13 12 12 12
8 9 9 8 8 8 8 7 7 7 7 7 6 7 7 7 7 7 7 6 7 8 8 6 7 7 5 6 7 8 10 10 8 7 3 7 9 8 8 10 10 11 10 10 11 11 10 12 11 13 14 14 13 8 7 9 12 10 11 15 20 21 18 19 22 22 21 19 21 21 21 20 17 13 14 15 16 16 16 15 13 13 13 13 13
8 8 9 8 8 8 8 7 7 7 7 7 7 7 7 7 7 7 7 7 7 8 9 8 8 7 7 8 9 9 10 9 8 12 12 6 5 7 8 9 10 11 11 11 12 12 11 11 12 13 11 12 12 12 11 13 15 16 16 17 18 20 20 17 20 23 23 21 20 21 21 21 19 16 16 17 17 17 17 14 13 13 13 13 13
8 9 8 8 7 7 7 7 7 7 6 7 6 6 6 6 7 8 7 6 8 9 10 9 8 9 7 9 8 9 9 11 12 11 11 13 13 8 8 9 9 10 11 12 12 12 12 10 12 13 10 12 14 14 11 12 13 14 14 16 16 19 20 19 17 19 21 21 20 24 22 23 21 19 19 18 17 18 16 15 15 15 15 14 14
9 9 8 8 8 7 7 7 7 7 6 5 6 6 7 7 9 8 8 8 7 7 9 8 8 9 10 9 9 10 10 11 12 10 10 13 15 12 12 9 9 10 10 10 11 11 11 12 12 13 11 11 14 15 14 13 13 13 14 16 17 18 19 20 18 17 15 19 22 24 21 23 23 23 20 19 19 18 16 16 17 16 16 16 15
9 9 8 8 8 8 7 7 7 6 6 6 6 6 7 7 7 8 9 9 6 8 9 9 8 9 8 9 9 9 9 8 7 9 11 11 13 17 13 13 14 11 8 9 12 12 12 11 11 12 13 12 14 15 15 15 13 13 14 17 19 19 19 19 19 18 16 14 20 20 19 23 24 23 21 21 21 20 17 17 17 17 18 17 16
8 8 9 9 8 9 8 8 7 6 7 7 6 6 6 6 5 6 6 7 7 9 8 8 8 9 10 9 9 8 9 10 10 10 10 11 12 15 16 15 14 16 12 10 11 12 12 11 11 13 13 13 13 14 15 16 16 15 14 15 17 19 20 20 20 19 18 16 17 16 21 23 24 23 23 23 21 20 20 19 19 18 19 18 17
7 7 9 9 8 8 9 9 8 8 8 7 6 7 7 6 6 7 6 7 7 7 7 8 10 9 10 9 9 9 10 10 10 11 11 12 12 15 16 15 13 11 12 11 11 12 12 12 12 13 12 12 13 13 13 15 15 19 17 17 18 19 20 20 21 20 19 18 17 19 20 19 23 23 23 24 23 21 20 20 19 19 20 19 18
7 8 8 9 7 8 8 8 7 7 7 7 7 8 7 7 8 8 8 9 8 10 8 9 9 9 8 9 9 9 10 9 9 10 11 11 11 13 15 13 13 15 13 11 10 10 11 12 12 12 13 13 13 12 12 13 13 17 19 15 20 19 21 22 21 20 20 19 18 18 21 22 24 23 23 23 23 22 21 21 19 16 17 17 18
7 8 7 8 8 7 7 7 7 7 8 8 8 8 9 8 8 9 9 8 9 10 9 11 10 10 10 9 10 10 10 10 10 10 10 11 11 13 14 13 12 14 13 12 11 11 11 10 11 12 12 13 12 12 11 13 13 16 20 15 17 21 21 21 21 21 20 20 20 19 19 19 18 22 22 24 23 20 21 18 16 17 15 15 15
7 7 8 9 9 8 9 9 8 8 8 9 8 8 9 9 8 9 9 9 10 10 9 10 9 11 11 10 9 9 10 10 10 10 10 10 11 12 13 16 14 12 13 12 11 12 14 11 9 10 12 13 13 11 11 12 16 18 18 17 13 20 20 21 22 21 21 21 21 21 21 21 20 20 20 19 21 19 19 17 17 18 15 14 15
8 8 9 9 9 9 9 9 9 9 9 10 10 8 10 9 9 9 10 8 9 10 9 9 10 12 11 10 10 9 9 9 9 10 10 11 11 10 10 12 12 13 13 12 8 10 12 12 11 12 12 12 13 13 13 14 12 18 19 13 12 13 20 21 20 23 22 22 22 22 21 20 20 19 17 17 20 19 19 18 18 18 16 15 15
7 7 8 9 9 8 8 8 9 9 10 10 10 10 10 9 9 10 10 10 9 9 9 9 10 10 10 12 9 9 9 10 9 9 10 10 11 11 10 11 10 13 12 13 12 11 11 10 10 9 10 12 11 11 11 11 12 14 12 12 13 12 16 21 20 22 21 22 22 23 22 21 21 17 15 16 19 20 20 18 19 19 17 16 17
7 7 8 9 9 9 8 9 9 10 10 10 10 10 10 10 11 10 11 11 11 9 9 10 10 10 10 11 10 9 9 10 10 11 9 10 11 12 12 11 10 13 13 13 11 9 12 10 11 11 7 10 11 10 10 11 13 13 9 10 12 12 18 21 22 22 21 21 22 22 22 23 22 20 20 19 19 18 20 19 19 19 18 18 19
9 9 9 9 9 9 9 10 10 11 11 11 11 10 10 10 12 11 12 13 12 12 11 11 11 11 12 11 10 9 10 11 11 10 10 10 12 12 12 14 12 11 11 12 13 8 7 11 11 11 11 9 9 9 10 9 12 15 13 11 12 15 17 17 21 22 22 23 22 21 22 23 22 22 22 20 21 21 21 20 20 19 18 18 18
9 10 9 10 10 10 10 11 12 12 13 12 11 11 10 10 11 11 12 13 13 12 12 11 9 11 12 12 11 10 11 10 10 11 11 10 9 10 11 10 12 13 13 12 14 15 8 10 12 12 12 8 8 10 10 10 10 15 12 13 15 15 14 10 21 22 23 23 23 22 22 22 21 22 22 22 22 21 21 21 21 21 21 19 18
9 10 10 10 10 10 11 12 12 12 13 12 11 10 10 11 11 12 12 13 13 11 11 12 11 11 11 12 11 11 12 11 10 11 11 12 12 11 11 10 10 12 12 13 13 13 9 6 9 9 11 8 9 11 11 9 10 11 13 14 12 12 10 7 10 21 22 22 22 22 22 22 21 21 22 22 22 22 22 22 23 22 21 20 19
9 9 10 9 9 10 11 12 12 12 12 12 11 10 11 11 11 10 12 13 14 14 13 13 13 11 11 12 12 12 11 11 12 12 11 12 12 12 12 11 11 12 11 13 14 13 15 8 9 8 7 7 10 9 11 10 12 10 12 13 12 15 11 11 7 10 23 21 21 21 21 21 21 21 22 22 22 23 22 22 23 23 21 21 20
9 9 9 9 10 10 11 11 12 12 12 12 11 11 11 12 12 11 11 12 13 13 13 13 14 13 13 13 13 13 10 12 12 11 12 12 12 12 13 11 12 12 12 12 13 14 15 12 8 7 5 6 9 10 11 11 11 11 12 12 12 10 12 12 9 7 19 22 23 22 22 22 21 21 22 23 23 24 23 21 21 21 22 21 19
9 8 9 10 10 10 11 12 12 12 12 12 11 11 11 11 12 12 12 11 11 12 13 13 14 14 14 14 14 14 13 13 13 13 11 12 12 12 13 12 12 13 12 12 12 12 14 15 9 7 8 8 8 10 9 10 12 10 12 9 11 13 13 11 8 7 14 23 22 22 23 23 22 22 22 23 23 24 23 23 23 23 22 21 20
9 8 8 8 9 10 10 12 12 13 13 12 12 12 11 10 11 11 12 11 11 11 11 12 13 14 14 14 15 14 13 13 13 14 14 16 13 12 13 13 12 13 12 12 11 10 11 14 12 9 7 8 8 8 10 10 10 11 8 9 11 12 10 9 6 11 16 23 21 21 22 23 23 23 22 22 23 24 24 24 24 24 23 22 21
9 9 9 8 8 9 10 11 12 13 14 12 13 12 12 11 11 10 10 11 11 10 11 11 12 13 13 14 14 14 14 14 14 14 15 17 15 14 15 14 13 13 14 14 13 12 11 11 12 13 7 7 7 8 9 10 10 9 8 8 10 11 11 11 10 8 7 9 9 13 18 18 21 24 23 23 23 24 24 24 24 23 23 23 22
9 9 9 9 8 8 9 10 11 13 13 15 14 14 12 11 11 10 11 11 11 10 11 12 12 12 14 14 14 14 14 14 14 15 15 16 13 16 15 15 15 15 14 13 13 14 13 12 11 11 10 7 7 9 7 10 11 11 10 7 10 8 9 11 9 8 6 9 15 17 14 15 18 16 20 23 23 24 25 25 24 24 23 23 22
10 10 9 9 8 8 9 10 12 12 14 14 15 14 12 11 11 11 11 11 11 12 12 12 12 13 13 13 13 14 14 13 14 14 15 15 14 15 15 15 16 16 15 14 13 12 12 12 10 11 10 9 7 8 6 8 10 9 9 10 10 9 10 9 10 9 7 8 8 9 13 17 18 20 22 22 24 24 25 24 25 24 24 23 22
8 9 9 9 9 9 9 11 12 12 13 13 13 14 14 13 12 11 12 12 12 12 12 12 13 14 14 14 13 14 15 18 20 17 17 16 14 16 17 17 17 16 15 12 12 12 12 12 12 10 10 10 9 9 9 9 11 11 7 8 9 9 9 8 9 11 11 10 10 9 8 10 9 11 9 9 13 22 22 24 21 26 25 23 23
9 8 9 9 9 10 10 12 12 11 12 12 16 19 16 13 13 11 11 12 13 12 12 12 13 15 14 14 14 20 20 20 20 17 16 17 20 18 16 16 17 16 15 13 12 12 12 13 13 12 11 11 10 9 10 10 8 8 6 7 7 9 9 9 8 9 10 11 8 10 9 8 8 8 11 12 12 16 11 14 14 17 22 24 23
9 9 9 10 10 10 11 12 12 11 11 12 18 17 17 19 14 11 12 13 13 13 13 15 15 15 15 15 14 16 17 18 19 19 17 19 18 18 20 21 18 15 15 15 13 12 12 11 11 11 11 13 13 10 11 10 8 9 8 9 10 8 9 8 8 3 9 11 9 9 7 10 13 9 12 13 14 13 12 12 20 23 23 24 23
9 9 10 10 10 9 9 12 12 11 11 17 16 17 16 17 16 12 11 12 12 12 14 15 14 14 15 15 14 14 14 18 18 18 21 23 21 20 20 19 18 17 15 13 14 14 13 13 14 14 13 12 13 13 10 9 9 9 10 11 10 10 9 8 10 10 6 13 11 8 10 10 12 12 10 13 13 13 15 19 24 24 24 24 24
9 10 10 10 10 9 9 11 11 11 11 16 15 17 16 17 17 14 11 12 13 14 14 15 15 15 14 14 15 14 15 23 19 19 20 21 22 23 20 19 17 15 14 15 16 15 14 15 14 16 13 12 12 12 12 11 9 10 10 12 12 10 12 12 13 12 10 14 12 10 10 10 12 12 11 13 13 11 13 19 23 24 24 24 24
9 10 10 11 9 9 9 9 10 10 12 13 15 17 17 18 17 14 11 14 14 14 15 15 14 15 15 15 15 16 17 18 17 20 21 20 20 19 18 17 16 18 16 16 14 15 14 13 14 16 17 14 13 13 15 13 13 12 10 12 12 10 10 13 13 12 10 15 16 12 8 11 11 9 9 11 12 12 12 19 24 24 23 24 23
9 9 8 9 8 8 8 8 8 10 9 15 16 17 17 18 18 13 14 12 13 15 15 15 15 14 15 14 16 16 17 17 17 21 21 21 20 17 17 17 18 17 17 16 15 14 14 13 14 16 18 17 16 14 14 14 13 12 13 12 12 12 12 10 7 4 7 12 14 13 9 7 8 9 11 12 11 12 11 16 24 23 24 23 23
8 7 7 7 8 9 9 9 8 9 9 14 16 16 16 18 18 12 14 14 15 15 15 15 14 13 14 15 16 17 18 18 22 24 23 20 19 18 18 18 18 17 16 15 16 16 16 16 15 16 17 18 18 17 15 13 14 14 12 9 8 11 12 9 10 6 10 9 14 11 6 11 12 13 13 10 11 11 13 10 20 24 23 22 22
8 7 7 7 7 8 9 9 9 8 9 12 15 16 16 18 14 13 14 15 13 15 15 15 14 14 14 16 16 17 19 19 23 23 23 23 18 18 18 18 17 16 16 16 17 19 18 19 21 23 24 24 23 23 24 25 18 13 10 11 10 8 7 8 8 8 8 9 10 13 10 7 10 12 9 9 12 11 10 12 11 17 21 21 21
8 7 6 7 7 8 9 9 9 9 9 10 14 16 16 17 16 13 14 14 15 16 15 15 14 14 16 21 19 18 19 20 23 23 23 22 19 17 17 18 18 18 17 18 16 16 19 18 17 17 17 15 17 18 19 19 18 12 8 14 9 7 9 10 9 7 6 7 10 13 10 10 11 10 9 6 6 5 10 11 13 12 17 16 20
7 7 7 8 8 8 8 8 10 10 9 9 13 15 17 17 14 11 14 14 16 15 15 16 15 14 15 15 19 18 19 21 23 22 23 22 18 16 17 17 17 18 17 19 17 18 18 17 15 15 13 12 10 8 8 10 9 9 9 12 7 8 11 10 9 7 7 7 10 14 9 6 10 7 10 7 5 1 3 10 12 10 9 10 11
Wind_Direction
344 344 332 348 6 354 315 325 324 348 341 350 347 343 348 352 345 331 332 331 323 354 139 170 187 192 214 217 229 244 231 240 244 241 236 235 228 210 205 222 227 230 236 241 236 237 228 215 209 206 199 199 206 204 204 199 194 201 205 193 182 174 167 166 163 165 156 132 137 133 122 120 117 112 112 108 103 106 110 106 102 105 107 105 109
332 329 318 5 344 326 323 339 336 340 341 341 345 329 328 326 315 311 315 302 301 324 300 262 223 209 207 208 196 220 226 232 237 235 236 225 226 223 198 216 219 220 232 239 237 240 240 229 214 208 202 202 212 201 202 202 194 204 205 198 187 180 175 171 174 178 163 139 137 134 128 132 127 126 121 117 115 115 115 114 113 105 102 105 107
321 337 339 334 327 327 338 340 345 2 354 347 338 332 325 313 317 317 311 309 311 302 293 296 287 274 256 268 242 226 229 228 240 236 235 227 228 228 212 208 219 216 220 234 247 238 241 232 228 217 209 203 211 206 204 198 205 205 207 199 191 188 179 179 177 179 164 151 147 155 149 141 135 125 128 130 125 121 116 110 107 106 106 108 113
306 345 344 330 334 339 348 355 357 354 354 340 334 335 324 319 317 312 309 305 303 301 304 296 294 295 293 286 289 272 257 249 245 236 236 234 231 226 229 214 210 216 213 221 235 247 242 233 228 228 220 206 214 213 207 202 208 206 210 198 199 190 188 189 182 182 170 167 174 169 156 151 140 132 125 126 123 121 117 113 111 112 111 112 115
327 331 340 334 338 342 354 358 354 346 342 339 336 335 329 324 323 319 303 296 291 288 279 277 284 294 299 293 287 283 280 269 256 244 240 232 231 232 230 225 218 206 217 217 220 232 248 245 227 230 225 216 212 211 212 205 202 208 210 201 200 197 194 194 191 187 177 182 181 171 160 161 148 136 130 127 125 123 124 121 120 118 114 114 115
327 336 333 340 351 1 4 2 358 344 336 335 336 338 335 332 331 323 318 306 295 294 294 288 288 289 289 301 288 289 290 274 264 256 245 241 232 230 232 229 223 218 211 212 217 221 231 246 233 227 229 217 217 213 213 212 209 209 209 203 200 200 201 196 196 190 193 185 187 170 164 170 159 144 140 136 128 125 128 130 130 123 117 112 111
331 332 345 347 4 10 2 11 358 342 341 344 334 333 329 323 326 328 323 307 297 298 294 293 296 298 300 304 299 298 287 279 274 264 253 245 234 236 229 229 226 223 219 215 210 219 226 231 226 226 231 221 220 216 217 216 211 211 210 203 202 204 203 201 197 194 197 189 195 169 172 169 168 159 146 146 145 140 134 131 131 128 122 120 118
333 335 335 341 357 7 10 351 1 342 330 328 331 323 322 314 328 333 328 321 319 307 306 298 296 295 295 295 292 292 289 286 280 274 267 259 248 236 230 227 224 224 220 222 218 206 215 232 223 221 230 238 228 218 217 215 213 212 212 206 205 206 206 203 203 193 196 185 196 181 175 175 175 172 157 156 156 152 144 138 136 132 129 126 124
334 335 330 331 335 342 358 346 341 336 320 306 284 286 303 302 309 315 314 316 313 307 304 303 303 302 300 295 293 293 287 284 281 279 277 262 249 239 230 231 227 227 223 221 214 198 207 215 218 218 224 240 245 232 217 218 215 217 211 206 204 206 206 202 202 199 199 189 194 196 176 180 187 178 169 164 160 160 149 143 135 134 133 131 129
338 328 305 321 329 336 336 331 330 317 307 286 289 286 275 286 294 282 290 292 303 306 306 308 304 304 301 299 299 294 289 286 282 276 271 271 263 247 233 230 230 228 226 220 210 203 218 217 216 214 221 231 239 242 228 217 218 218 216 209 204 210 209 204 202 200 202 199 199 199 194 180 195 187 176 172 162 163 152 147 142 138 135 134 134
17 0 356 346 336 339 337 332 323 318 311 292 286 273 260 262 271 289 282 278 293 295 301 305 301 302 302 301 301 295 294 288 282 275 269 267 267 266 257 244 231 230 232 226 218 211 216 220 213 213 219 220 231 237 237 225 218 221 218 212 201 207 213 211 208 202 201 201 202 199 197 188 198 193 185 173 168 165 159 154 148 144 140 139 140
38 35 29 11 354 346 336 329 327 322 313 313 318 314 316 317 310 306 306 299 261 263 269 282 287 289 288 289 289 292 287 282 280 278 269 263 262 263 260 259 251 249 247 239 228 222 222 218 219 209 223 220 219 230 230 228 224 226 221 217 208 206 213 213 212 205 201 201 202 198 196 190 194 194 193 179 176 170 164 157 155 152 146 143 140
36 36 37 31 22 360 347 343 341 324 317 318 325 323 324 323 318 313 304 302 306 298 293 302 297 288 290 295 295 284 278 271 272 270 270 268 265 263 262 260 255 251 247 244 240 236 230 226 219 217 222 228 216 215 222 218 222 224 227 220 217 210 210 215 214 209 202 201 200 199 194 197 190 195 195 186 181 175 167 160 159 155 150 150 144
39 42 43 39 31 24 19 16 360 351 336 330 332 325 323 321 315 309 311 311 302 316 317 312 291 317 320 315 306 292 258 254 254 268 272 270 268 263 260 256 256 254 250 243 238 238 236 228 222 217 218 223 226 218 213 219 220 222 225 225 219 214 211 211 213 216 204 199 199 196 197 199 191 193 196 191 184 179 172 162 162 160 154 156 159
40 39 37 31 31 27 24 12 3 355 338 336 338 337 343 328 316 310 309 296 288 283 284 291 311 316 301 299 317 326 313 263 236 254 247 252 253 259 258 256 255 252 249 243 241 237 236 233 227 221 218 222 225 217 218 220 225 219 219 223 223 218 214 210 212 218 207 202 196 194 198 200 197 198 198 192 189 187 176 170 168 166 162 159 167
40 40 40 37 30 27 22 19 17 5 348 336 340 340 341 334 329 319 306 307 317 292 288 306 292 316 318 332 310 308 304 303 321 308 274 256 251 262 257 261 262 255 244 243 244 241 236 233 224 223 223 221 222 218 216 226 224 223 215 216 221 223 219 215 213 216 214 204 196 194 196 197 195 201 201 193 192 190 183 173 176 174 171 168 173
38 39 40 36 30 26 25 27 20 20 9 344 336 337 326 324 326 317 322 321 315 310 306 309 294 258 296 309 310 287 297 307 315 298 259 267 259 246 247 254 257 256 250 247 246 246 242 238 232 226 224 223 217 219 219 222 229 222 218 213 215 224 225 219 215 214 217 208 199 196 194 193 194 201 202 192 188 190 183 175 178 173 176 175 176
38 40 38 37 34 25 20 19 14 18 15 14 11 7 358 358 347 338 332 332 321 314 308 296 295 297 270 259 260 276 294 299 303 305 276 260 275 265 254 253 255 257 256 253 250 247 239 240 236 233 229 225 220 210 218 229 227 224 221 219 209 216 223 224 220 216 214 212 205 198 197 193 192 197 198 193 190 189 185 178 181 177 180 177 176
37 38 37 39 36 32 29 24 25 21 15 15 14 7 360 356 345 343 335 322 308 303 301 302 300 284 275 276 265 258 268 285 295 306 304 299 255 264 265 260 257 257 258 259 258 258 251 242 240 239 231 222 217 213 209 224 229 231 227 224 206 210 215 219 224 221 215 209 208 208 196 196 190 191 194 195 192 187 189 180 180 184 183 178 177
42 38 35 34 34 34 29 24 26 25 19 21 10 2 355 353 349 340 333 333 328 316 314 311 309 304 307 307 298 279 270 268 268 269 282 296 299 273 261 266 259 258 260 265 265 261 253 240 240 238 228 225 221 217 208 218 225 226 225 221 212 205 210 214 221 225 216 204 204 213 204 195 196 191 194 194 187 186 185 179 184 185 183 180 179
43 40 36 34 36 33 29 26 23 22 16 10 6 359 357 355 354 342 332 326 320 311 307 312 314 311 311 299 294 288 284 277 279 271 275 303 301 301 299 290 261 261 245 247 255 255 253 249 240 237 225 219 225 220 210 212 217 222 222 215 213 206 206 210 213 219 225 210 210 210 206 197 197 192 193 190 186 184 184 185 187 185 185 181 180
39 35 34 33 33 32 30 28 26 19 16 10 0 353 355 353 351 344 338 335 325 322 323 317 310 306 301 305 305 306 303 302 291 294 293 288 288 298 301 300 295 283 269 253 245 244 243 245 239 234 232 225 225 224 216 214 216 218 218 214 211 206 203 206 209 211 214 204 211 206 202 206 193 196 188 189 187 187 187 187 186 187 186 182 180
33 32 34 27 31 30 24 21 21 18 11 7 3 349 342 329 326 332 337 339 334 336 335 328 323 319 314 304 300 299 300 298 299 297 290 292 291 291 297 297 297 295 285 271 262 253 244 239 235 245 240 231 224 223 222 218 213 218 215 212 214 208 204 204 206 207 208 202 200 191 213 210 200 197 190 189 190 189 189 191 188 188 188 183 180
41 37 30 22 26 27 24 21 19 10 6 354 347 345 337 333 335 340 339 332 329 334 325 327 332 322 315 316 311 306 299 297 298 296 296 299 301 297 296 299 295 283 288 279 258 255 247 233 237 245 243 238 230 224 221 219 213 209 212 210 211 210 208 204 203 204 203 200 197 193 203 206 205 200 194 188 191 191 191 192 189 189 189 184 181
49 41 34 26 25 24 23 17 9 4 355 352 346 346 347 346 348 348 346 340 343 340 327 327 323 316 321 318 310 308 306 303 298 299 298 295 290 291 288 289 290 295 292 285 276 264 255 252 245 245 248 241 238 225 220 218 218 208 209 214 209 213 209 206 203 202 200 198 198 194 198 204 202 205 196 189 190 190 190 192 188 185 188 186 183
50 45 31 28 29 27 24 19 12 3 359 354 351 352 0 354 358 359 351 349 347 343 336 337 332 331 330 320 320 318 317 316 314 307 303 299 290 285 290 292 286 287 290 288 280 277 267 249 249 246 242 241 236 233 216 213 218 211 206 210 210 213 210 206 203 202 200 198 198 195 196 196 208 208 202 191 189 188 188 186 180 176 185 187 183
45 39 32 29 27 26 24 21 14 9 5 3 0 5 4 7 7 2 356 353 348 346 342 342 339 338 332 328 322 317 319 322 319 312 305 293 291 298 300 298 295 286 287 288 287 259 268 271 249 239 243 243 239 223 221 216 217 209 203 209 211 211 211 207 201 201 200 200 199 197 196 197 200 205 205 191 187 181 181 181 172 172 182 185 187
51 45 37 32 28 24 23 20 13 10 8 9 10 10 12 14 10 4 359 354 345 344 343 339 339 337 334 331 327 321 319 318 319 317 312 306 298 296 296 292 288 291 292 292 281 268 261 264 254 236 243 242 242 237 223 219 215 207 203 203 205 208 207 207 203 204 201 199 200 198 195 195 197 199 194 192 188 179 177 174 170 173 181 184 188
50 43 40 39 35 29 25 19 16 11 10 12 12 13 16 17 11 9 5 353 345 343 340 341 337 335 335 334 328 320 320 323 316 311 308 302 299 292 288 285 289 288 290 286 283 285 280 259 265 252 233 241 238 236 224 218 215 208 202 199 199 207 202 204 200 206 202 198 198 198 195 193 196 188 190 187 186 177 174 172 171 174 181 185 189
47 42 40 37 34 30 27 22 18 16 14 12 11 11 8 12 8 8 5 359 357 352 347 342 340 338 337 334 330 324 327 328 327 319 313 310 305 306 303 288 282 287 285 285 287 276 282 277 266 269 251 232 241 227 221 220 208 199 201 192 201 205 200 200 201 201 199 198 198 196 195 194 195 189 192 186 184 180 175 171 172 175 181 188 188
42 41 38 35 32 29 26 23 19 18 17 15 11 10 8 9 10 8 5 1 1 358 358 353 349 344 340 336 335 336 341 332 327 330 330 331 334 334 326 324 312 293 288 285 283 265 256 281 280 270 264 239 227 224 227 218 211 201 205 203 203 206 200 200 202 200 198 197 196 194 194 194 192 188 194 191 187 184 176 173 174 177 181 189 187
44 41 39 36 32 30 27 24 21 18 18 16 12 11 10 10 7 6 4 1 1 358 354 353 350 347 344 342 341 341 340 333 332 334 334 333 332 328 329 329 325 320 308 291 281 282 267 270 277 274 265 237 211 219 221 220 213 203 211 211 207 201 202 201 202 199 199 194 193 192 193 193 191 189 189 190 187 184 177 176 175 178 180 186 185
42 41 38 34 31 28 26 24 21 18 16 15 12 10 11 8 5 4 2 2 1 358 350 350 352 347 344 340 340 342 340 334 337 336 335 335 336 334 334 334 327 327 324 312 293 285 281 246 259 255 251 222 229 214 219 213 216 211 214 218 203 200 198 185 189 197 197 196 194 191 190 190 191 191 189 189 185 182 178 177 175 176 179 184 184
42 41 38 34 32 31 30 27 23 18 15 14 11 9 9 6 5 4 1 358 1 0 356 352 349 348 343 341 340 343 341 337 339 340 338 337 338 335 336 334 327 326 329 327 317 303 293 285 271 262 258 223 242 210 215 210 217 210 213 217 214 210 200 199 171 189 196 197 195 190 189 190 190 191 188 186 182 180 180 178 176 176 179 182 184
43 39 36 37 35 36 35 32 27 21 16 13 11 10 9 5 3 1 358 359 359 356 355 354 352 349 347 345 344 343 340 339 343 342 340 340 337 333 330 330 325 323 323 323 322 314 307 295 278 264 237 226 226 231 214 220 218 211 212 214 209 208 208 201 191 175 190 195 192 191 190 189 189 191 187 185 182 181 179 176 175 176 179 182 182
44 41 40 38 40 38 38 35 32 26 20 15 12 12 10 4 3 0 359 359 356 355 354 351 351 350 348 346 346 345 342 341 343 344 343 341 338 334 330 327 325 322 320 320 316 311 310 303 289 266 256 240 239 238 235 223 222 214 218 212 209 211 207 198 185 174 190 195 192 189 190 189 188 190 188 185 183 179 177 175 176 178 179 182 182
42 41 39 37 39 40 38 36 33 30 26 17 13 10 9 3 2 1 359 358 355 354 353 351 351 351 348 346 345 345 344 341 342 343 341 340 338 334 331 328 327 323 320 317 309 306 306 304 300 282 260 248 245 240 234 230 220 221 210 206 201 205 198 188 178 192 183 191 193 190 192 189 188 189 188 186 183 179 176 177 177 178 178 180 183
43 42 41 37 36 38 38 37 35 33 29 22 16 10 4 1 359 360 358 355 353 351 351 350 351 353 350 347 345 346 344 343 342 341 340 338 336 333 331 329 326 323 320 315 312 312 305 299 302 295 264 245 251 241 234 226 221 216 206 201 203 208 205 196 192 186 164 172 174 191 194 191 188 188 187 187 183 180 177 177 179 179 178 179 183
45 42 38 39 35 36 38 37 36 33 30 27 21 13 5 1 356 356 356 354 354 353 349 350 349 350 352 351 347 346 343 342 342 341 339 338 335 331 330 327 325 324 318 314 315 311 307 302 298 292 280 241 230 250 239 233 224 217 205 198 208 202 203 196 187 184 155 178 194 182 176 185 193 191 184 187 185 181 178 178 179 178 179 178 182
44 41 36 34 35 34 36 38 36 34 30 27 22 14 5 359 353 356 356 354 355 354 354 354 354 352 349 349 348 345 342 341 341 339 340 337 333 328 328 326 324 322 319 316 314 309 306 304 298 303 289 264 238 238 244 237 234 226 207 196 204 197 195 195 195 185 167 165 164 175 189 190 190 188 186 186 185 183 181 180 180 180 178 178 182
44 40 38 36 34 34 36 38 37 34 31 24 17 9 7 358 354 354 354 354 352 351 352 355 355 353 352 349 346 344 340 340 338 336 336 334 332 329 325 324 320 318 315 310 310 308 307 305 300 296 296 280 248 233 230 228 227 229 209 211 214 205 195 192 201 196 180 173 175 166 173 177 172 182 180 180 186 184 183 183 182 181 179 178 182
45 39 38 37 34 32 33 34 37 34 30 23 3 1 5 1 351 352 353 354 353 352 352 354 355 355 351 347 341 340 339 339 339 337 334 327 327 323 317 317 316 313 309 306 306 309 308 305 302 303 300 293 277 242 232 232 230 226 214 202 212 200 194 202 195 196 183 180 162 171 177 172 169 180 175 188 185 185 178 183 183 183 180 177 181
43 40 37 37 33 29 32 35 35 36 30 13 358 1 357 357 353 346 353 352 352 352 358 358 357 353 350 348 343 341 341 342 340 337 332 329 324 316 309 304 300 297 304 306 303 306 307 301 299 296 293 292 293 279 245 233 218 220 215 206 210 204 201 183 191 142 182 172 163 168 168 178 176 175 181 184 185 187 182 181 183 180 178 178 179
42 41 39 35 33 29 29 35 36 32 28 10 358 358 355 352 351 342 353 352 349 357 3 360 357 353 350 347 345 343 342 342 341 339 336 330 325 318 310 302 295 284 269 272 294 302 299 300 298 292 290 288 292 295 282 253 234 223 223 215 212 209 205 200 197 196 168 173 173 174 183 176 184 178 180 186 180 180 189 185 179 179 177 178 179
43 42 36 34 30 27 25 31 35 31 26 10 356 358 355 352 347 336 354 351 358 7 3 360 357 354 352 348 346 344 343 343 343 342 337 331 327 322 315 309 302 301 298 274 254 261 286 288 289 288 284 288 286 283 288 282 255 230 222 223 216 209 209 210 207 201 157 177 176 182 177 169 178 181 183 182 180 178 184 182 180 178 176 177 179
44 42 37 34 29 25 21 25 34 30 25 5 359 358 357 351 344 327 356 3 7 5 3 2 358 357 354 352 347 345 345 344 344 344 338 334 329 325 323 322 320 317 309 299 285 266 261 276 286 287 286 284 281 285 287 293 281 247 228 230 223 211 202 208 201 196 170 173 187 176 182 174 178 170 180 177 179 170 179 181 178 177 175 177 180
42 41 33 32 25 22 19 17 26 28 24 8 2 359 357 352 339 324 11 7 6 9 7 5 2 360 357 354 352 350 347 345 347 343 338 335 329 324 321 321 321 320 316 315 315 313 306 294 286 282 281 279 274 272 277 279 276 262 242 232 222 221 218 213 213 178 156 186 181 179 193 156 167 170 186 175 172 172 177 173 177 175 175 177 180
47 44 42 34 27 24 19 17 16 15 21 14 3 360 355 355 333 360 12 11 13 10 8 6 4 2 359 357 355 353 349 346 347 339 336 334 333 329 326 323 323 319 318 315 307 298 291 290 283 276 274 271 266 269 273 274 280 286 279 256 245 223 212 195 189 167 185 182 185 181 167 176 180 183 183 175 169 165 171 161 176 173 174 177 180
43 40 38 35 32 26 20 20 12 9 14 15 4 0 356 355 344 13 12 16 12 9 9 6 4 2 360 356 355 354 351 349 344 336 335 335 338 334 329 327 324 322 322 325 318 308 296 285 279 275 268 263 259 258 258 257 253 256 271 253 227 212 215 189 195 176 192 169 191 189 178 156 178 183 172 161 173 163 158 162 163 172 173 176 179
43 36 33 36 36 31 24 22 12 4 8 14 7 359 357 356 348 6 16 15 12 10 8 7 4 1 358 357 355 355 352 348 340 337 338 341 343 337 335 332 329 328 328 329 324 319 311 302 295 298 296 279 261 255 253 253 255 252 234 244 230 189 218 206 197 186 168 180 191 182 188 185 164 175 150 104 135 152 149 148 157 164 172 173 178
46 44 36 38 37 33 27 19 9 6 6 7 8 359 357 357 356 3 15 13 10 10 7 6 5 1 359 357 356 353 348 342 337 340 340 345 344 340 339 333 331 330 328 324 319 322 328 330 331 331 329 333 338 337 331 318 293 257 239 252 245 197 213 212 207 176 192 200 190 179 182 133 157 155 142 133 143 7 154 145 151 152 154 163 171